Regional Weather Roundup
Issued by NWS Sterling, VA

Home | Current Version | Previous Version | Text Only | Print | Product List | Glossary Off
Versions: 1 2 3 4 5 6 7 8 9 10 11 12 13 14 15 16 17 18 19 20 21 22 23 24 25 26 27 28 29 30 31 32 33 34 35 36 37 38 39 40 41 42 43 44 45 46 47 48 49 50

000
ASUS41 KLWX 300110
RWRLWX

REGIONAL WEATHER ROUNDUP
NATIONAL WEATHER SERVICE BALTIMORE MD/WASHINGTON DC
900 PM EDT SAT AUG 29 2015

Note: "FAIR" indicates few or no clouds below 12,000 feet
with no significant weather and/or obstructions to visibility.
 TC=TEMPERATURE CELSIUS

 * =Non NWS site. Station does not report precipitation (e.g. rain,
    snow, etc.), thunder, or fog.

DCZ001-MDZ009-015-VAZ040>042-051-053>054-300200-
WASHINGTON METRO

CITY           SKY/WX    TMP DP  RH WIND       PRES   REMARKS
WASHINGTON NAT CLOUDY    79  65  62 S10       30.11R
DULLES         MOCLDY    78  63  59 S6        30.11R
ANDREWS AFB    MOCLDY    74  63  67 SE8       30.11R
FT BELVOIR     MOCLDY    75  66  75 SE5       30.11R
QUANTICO       CLOUDY    77  68  73 S9        30.12R
COLLEGE PARK*  MOCLDY    79  64  61 S3        30.10R
LEESBURG*      MOCLDY    81  64  57 S15       30.11R
MANASSAS*      CLEAR     75  66  73 CALM      30.11R
GAITHERSBURG*  MOCLDY    79  61  53 S6        30.15R

$$

MDZ006>007-011-014-300200-
BALTIMORE METRO

CITY           SKY/WX    TMP DP  RH WIND       PRES   REMARKS
BWI AIRPORT    MOCLDY    75  63  66 S6        30.11R
MD SCIENCE CTR   N/A     78  63  59 MISG      30.11R
MARTIN STATE   CLEAR     79  68  69 S10       30.12R
ANNAPOLIS      MOCLDY    78  64  61 S9G18     30.10S
FORT MEADE*    MOCLDY    72  63  73 S3        30.13R

$$

MDZ012-015-019>023-300200-
MARYLAND EASTERN SHORE

CITY           SKY/WX    TMP DP  RH WIND       PRES   REMARKS
OCEAN CITY     CLOUDY    75  61  61 VRB5      30.14S
SALISBURY      CLOUDY    70  63  78 S3        30.13S
BAY BRIDGE AP*   N/A     77  61  57 S7        30.11S
CAMBRIDGE*     CLOUDY    73  63  68 S5        30.12R

$$

MDZ017>025-300200-
SOUTHERN MARYLAND

CITY           SKY/WX    TMP DP  RH WIND       PRES   REMARKS
PATUXENT RIVER CLOUDY    74  64  71 S6        30.12R
ST INIGOES     CLOUDY    76  64  66 SE9       30.12R
LEONARDTOWN*   CLOUDY    73  63  68 CALM      30.14R

$$

MDZ003>005-300200-
NORTH CENTRAL MARYLAND

CITY           SKY/WX    TMP DP  RH WIND       PRES   REMARKS
FREDERICK*     MOCLDY    77  66  69 S3        30.12R
HAGERSTOWN APT MOCLDY    80  63  55 SE5       30.10R
WESTMINSTER*   MOCLDY    75  70  83 SE6       30.12R

$$

MDZ501>502-300200-
WESTERN MARYLAND

CITY           SKY/WX    TMP DP  RH WIND       PRES   REMARKS
OAKLAND*       MOCLDY    68  55  64 SW3       30.21R
CUMBERLAND*    MOCLDY    77  63  61 CALM      30.13R

$$

VAZ025>031-300200-
SHENANDOAH VALLEY

CITY           SKY/WX    TMP DP  RH WIND       PRES   REMARKS
WINCHESTER*    MOCLDY    77  63  61 SE6       30.11R
FRONT ROYAL*   FAIR      77  63  61 CALM      30.10R
LURAY*         FAIR      73  61  64 SW6       30.12R
NEW MARKET*    FAIR      70  64  81 CALM      30.10R
STAUNTON*      PTCLDY    76  62  61 S5        30.16R
WAYNESBORO*    FAIR      73  62  67 SW3       30.16R

$$

WVZ021-048>050-054>055-300200-
EASTERN WEST VIRGINIA PANHANDLE

CITY           SKY/WX    TMP DP  RH WIND       PRES   REMARKS
MARTINSBURG    PTCLDY    74  64  71 S3        30.10R
PETERSBURG*    MOCLDY    72  65  80 NW3       30.12R

$$

VAZ036>039-050-300200-
CENTRAL FOOTHILLS

CITY           SKY/WX    TMP DP  RH WIND       PRES   REMARKS
CHARLOTTESVILL MOCLDY    74  63  68 S5        30.12R
CULPEPER*      MOCLDY    72  66  81 CALM      30.12R
ORANGE*        MOCLDY    73  64  73 CALM      30.13S
GORDONSVILLE*  FAIR      70  67  89 CALM      30.12R
WARRENTON*     FAIR      76  67  73 SE3       30.11R

$$

VAZ055>057-300200-
NORTH AND CENTRAL PIEDMONT

CITY           SKY/WX    TMP DP  RH WIND       PRES   REMARKS
FREDERICKSBRG* MOCLDY    76  66  71 S8        30.11R
STAFFORD*      MOCLDY    71  64  79 CALM      30.15R

$$

NCZ024-NYZ072-PAZ021-071-VAZ022-071-300200-
OTHER REGIONAL OBSERVATIONS

CITY           SKY/WX    TMP DP  RH WIND       PRES   REMARKS
NEW YORK CITY  CLEAR     76  59  55 VRB3      30.13S
PHILADELPHIA   MOCLDY    78  60  53 S9        30.12R
PITTSBURGH     MOCLDY    76  64  66 CALM      30.09R
ROANOKE        MOCLDY    74  62  66 CALM      30.17R
RICHMOND       CLOUDY    76  63  64 SE5       30.13R
RALEIGH        CLOUDY    75  62  64 CALM      30.14R

$$

ANZ530>537-300200-
MARINE OBSERVATIONS

STATION/POSITION TIME  TEMP    WIND        PRES
                       AIR SEA DIR/SP/G
                 (UTC) (F)     (DEG/KT/KT) (MB)
THOMAS PT LIGHT  0100   78 79  180/ 19/ 22 1019.9R

$$




USA.gov is the U.S. government's official web portal to all federal, state and local government web resources and services.